Escanaba, MI

11:21 AM EDT on April 21, 2018 (GMT -0400)
Delta County

Weather History for KESC - June, 2014

Change the Weather History Date:

Sunday, June 15, 2014

  Actual Average Record
Temperature  
Mean Temperature 58 °F -  
Max Temperature 64 °F 67 °F 84 °F (1957)
Min Temperature 53 °F 52 °F 35 °F (1999)
Degree Days  
Heating Degree Days 6    
Growing Degree Days 8 (Base 50)    
Moisture  
Dew Point 50 °F    
Average Humidity 73    
Maximum Humidity 94    
Minimum Humidity 56    
Precipitation  
Precipitation 0.00 in - - ()
Sea Level Pressure  
Sea Level Pressure 29.92 in    
Wind  
Wind Speed 11 mph (SE)    
Max Wind Speed 18 mph    
Max Gust Speed 28 mph    
Visibility 10 miles    
Events Thunderstorm    
Averages and records for this station are not official NWS values.
T = Trace of Precipitation, MM = Missing Value Source: NWS Daily Summary

Daily Weather History Graph

Daily Weather History Graph

Search for Another Location

Airport or City:

Astronomy

Jun. 15, 2014 Rise Set
Actual Time 5:58 AM EDT 9:39 PM EDT
Civil Twilight 5:19 AM EDT 10:18 PM EDT
Nautical Twilight 4:28 AM EDT 11:09 PM EDT
Astronomical Twilight 3:18 AM EDT 12:19 AM EDT
Moon 11:40 PM EDT (6/15) 8:58 AM EDT (6/15)
Length of Visible Light 16h 58m
Length of Day
15h 41m
Waning Gibbous, 91% of the Moon is Illuminated
Jun 15
Waning Gibbous
Jun 19
Last Quarter
Jun 27
New
Jul 5
First Quarter
Jul 12
Full

Hourly Weather History & Observations

Time (EDT) Temp. Dew Point Humidity Pressure Visibility Wind Dir Wind Speed Gust Speed Precip Events Conditions
12:15 AM 55.4 °F 44.6 °F 67% 30.07 in 10.0 mi ESE 9.2 mph - N/A   Clear
12:35 AM 55.4 °F 44.6 °F 67% 30.06 in 10.0 mi East 9.2 mph - N/A   Clear
12:55 AM 55.4 °F 44.6 °F 67% 30.04 in 10.0 mi East 9.2 mph - N/A   Clear
1:15 AM 57.2 °F 44.6 °F 63% 30.03 in 10.0 mi ESE 11.5 mph 17.3 mph N/A   Clear
1:35 AM 57.2 °F 46.4 °F 67% 30.02 in 10.0 mi ESE 13.8 mph 19.6 mph N/A   Clear
1:55 AM 57.2 °F 46.4 °F 67% 30.01 in 10.0 mi ESE 12.7 mph - N/A   Clear
2:15 AM 57.2 °F 46.4 °F 67% 30.01 in 10.0 mi ESE 15.0 mph - N/A   Mostly Cloudy
2:35 AM 57.2 °F 46.4 °F 67% 30.01 in 10.0 mi ESE 12.7 mph 20.7 mph N/A   Overcast
2:55 AM 57.2 °F 48.2 °F 72% 30.01 in 10.0 mi ESE 12.7 mph - N/A   Overcast
3:15 AM 57.2 °F 46.4 °F 67% 30.02 in 10.0 mi ESE 10.4 mph - N/A   Overcast
3:35 AM 57.2 °F 48.2 °F 72% 30.03 in 10.0 mi East 3.5 mph - N/A   Overcast
3:55 AM 57.2 °F 48.2 °F 72% 30.04 in 10.0 mi SE 6.9 mph - N/A   Overcast
4:15 AM 55.4 °F 48.2 °F 77% 30.03 in 10.0 mi ESE 8.1 mph - N/A   Overcast
4:35 AM 55.4 °F 48.2 °F 77% 30.03 in 10.0 mi ESE 6.9 mph - N/A   Overcast
4:55 AM 55.4 °F 46.4 °F 72% 30.03 in 10.0 mi SE 5.8 mph - N/A   Overcast
5:15 AM 53.6 °F 46.4 °F 77% 30.02 in 10.0 mi SSE 3.5 mph - N/A   Overcast
5:35 AM 53.6 °F 48.2 °F 82% 30.01 in 10.0 mi ESE 5.8 mph - N/A   Mostly Cloudy
5:55 AM 55.4 °F 48.2 °F 77% 30.00 in 10.0 mi East 3.5 mph - N/A   Clear
6:15 AM 53.6 °F 48.2 °F 82% 30.00 in 10.0 mi ESE 3.5 mph - N/A   Clear
6:35 AM 55.4 °F 48.2 °F 77% 30.00 in 10.0 mi ESE 3.5 mph - N/A   Clear
7:15 AM 55.4 °F 48.2 °F 77% 29.98 in 10.0 mi SE 11.5 mph - N/A   Clear
7:35 AM 57.2 °F 48.2 °F 72% 29.98 in 10.0 mi SSE 15.0 mph 21.9 mph N/A   Clear
7:55 AM 57.2 °F 48.2 °F 72% 29.98 in 10.0 mi SSE 17.3 mph 20.7 mph N/A   Clear
8:15 AM 57.2 °F 48.2 °F 72% 29.96 in 10.0 mi SSE 18.4 mph 27.6 mph N/A   Clear
8:35 AM 57.2 °F 48.2 °F 72% 29.97 in 10.0 mi SSE 18.4 mph 26.5 mph N/A   Clear
8:55 AM 57.2 °F 48.2 °F 72% 29.96 in 10.0 mi SSE 16.1 mph 23.0 mph N/A   Clear
9:15 AM 59.0 °F 50.0 °F 72% 29.96 in 10.0 mi SSE 15.0 mph 21.9 mph N/A   Clear
9:35 AM 59.0 °F 48.2 °F 67% 29.96 in 10.0 mi SSE 11.5 mph 19.6 mph N/A   Clear
9:55 AM 59.0 °F 48.2 °F 67% 29.95 in 10.0 mi SSE 16.1 mph 23.0 mph N/A   Clear
10:15 AM 60.8 °F 48.2 °F 63% 29.95 in 10.0 mi SE 15.0 mph 23.0 mph N/A   Clear
10:35 AM 60.8 °F 48.2 °F 63% 29.94 in 10.0 mi SSE 13.8 mph 21.9 mph N/A   Clear
10:55 AM 60.8 °F 48.2 °F 63% 29.94 in 10.0 mi SSE 13.8 mph 19.6 mph N/A   Clear
11:15 AM 60.8 °F 48.2 °F 63% 29.94 in 10.0 mi SE 11.5 mph 18.4 mph N/A   Clear
11:35 AM 60.8 °F 50.0 °F 68% 29.93 in 10.0 mi SE 15.0 mph 19.6 mph N/A   Clear
11:55 AM 62.6 °F 50.0 °F 63% 29.92 in 10.0 mi SE 12.7 mph 19.6 mph N/A   Clear
12:15 PM 62.6 °F 50.0 °F 63% 29.91 in 10.0 mi SSE 16.1 mph 24.2 mph N/A   Clear
12:35 PM 62.6 °F 50.0 °F 63% 29.90 in 10.0 mi SSE 12.7 mph 23.0 mph N/A   Clear
12:55 PM 62.6 °F 51.8 °F 68% 29.89 in 10.0 mi SE 13.8 mph 18.4 mph N/A   Clear
1:15 PM 62.6 °F 50.0 °F 63% 29.88 in 10.0 mi SE 15.0 mph 21.9 mph N/A   Clear
1:35 PM 62.6 °F 50.0 °F 63% 29.88 in 10.0 mi SE 13.8 mph - N/A   Clear
1:55 PM 64.4 °F 48.2 °F 56% 29.87 in 10.0 mi SE 13.8 mph 21.9 mph N/A   Scattered Clouds
2:15 PM 62.6 °F 48.2 °F 59% 29.85 in 10.0 mi SE 11.5 mph 16.1 mph N/A   Scattered Clouds
2:35 PM 62.6 °F 48.2 °F 59% 29.82 in 10.0 mi SE 16.1 mph 21.9 mph N/A   Mostly Cloudy
2:55 PM 62.6 °F 48.2 °F 59% 29.82 in 10.0 mi SE 13.8 mph 18.4 mph N/A   Overcast
3:15 PM 60.8 °F 48.2 °F 63% 29.83 in 10.0 mi SSE 9.2 mph - N/A   Overcast
3:35 PM 62.6 °F 48.2 °F 59% 29.80 in 10.0 mi SE 13.8 mph 18.4 mph N/A   Overcast
3:55 PM 62.6 °F 48.2 °F 59% 29.79 in 10.0 mi SE 13.8 mph 23.0 mph N/A   Overcast
4:15 PM 60.8 °F 48.2 °F 63% 29.80 in 10.0 mi SSE 5.8 mph - N/A   Overcast
4:35 PM 59.0 °F 51.8 °F 77% 29.87 in 3.0 mi SSW 9.2 mph 18.4 mph N/A Thunderstorm Mostly Cloudy
4:55 PM 59.0 °F 53.6 °F 82% 29.87 in 7.0 mi South 9.2 mph - N/A   Overcast
5:15 PM 59.0 °F 55.4 °F 88% 29.86 in 10.0 mi South 10.4 mph - N/A   Overcast
5:35 PM 59.0 °F 53.6 °F 82% 29.85 in 10.0 mi South 8.1 mph - N/A   Overcast
5:55 PM 59.0 °F 53.6 °F 82% 29.84 in 10.0 mi SE 9.2 mph - N/A   Overcast
6:15 PM 60.8 °F 55.4 °F 82% 29.83 in 10.0 mi SE 9.2 mph - N/A   Overcast
6:35 PM 62.6 °F 55.4 °F 77% 29.83 in 10.0 mi South 8.1 mph 18.4 mph N/A   Overcast
6:55 PM 60.8 °F 53.6 °F 77% 29.83 in 10.0 mi South 9.2 mph - N/A   Overcast
7:15 PM 60.8 °F 51.8 °F 72% 29.82 in 10.0 mi SSE 8.1 mph 16.1 mph N/A   Overcast
7:35 PM 60.8 °F 51.8 °F 72% 29.82 in 10.0 mi SSE 8.1 mph - N/A   Mostly Cloudy
7:55 PM 60.8 °F 51.8 °F 72% 29.83 in 10.0 mi SSE 6.9 mph - N/A   Mostly Cloudy
8:15 PM 57.2 °F 51.8 °F 82% 29.82 in 5.0 mi SE 16.1 mph - N/A   Overcast
8:35 PM 57.2 °F 51.8 °F 82% 29.81 in 4.0 mi South 13.8 mph 21.9 mph N/A   Mostly Cloudy
8:55 PM 59.0 °F 55.4 °F 88% 29.81 in 10.0 mi SE 13.8 mph - N/A   Overcast
9:15 PM 60.8 °F 55.4 °F 82% 29.81 in 10.0 mi SE 8.1 mph - N/A   Mostly Cloudy
9:35 PM 62.6 °F 57.2 °F 82% 29.81 in 10.0 mi SSE 11.5 mph - N/A   Overcast
9:55 PM 60.8 °F 55.4 °F 82% 29.82 in 10.0 mi SSE 9.2 mph - N/A   Mostly Cloudy
10:15 PM 57.2 °F 53.6 °F 88% 29.83 in 10.0 mi SE 8.1 mph - N/A   Partly Cloudy
10:35 PM 55.4 °F 51.8 °F 88% 29.84 in 10.0 mi ESE 6.9 mph - N/A   Clear
10:55 PM 55.4 °F 51.8 °F 88% 29.84 in 10.0 mi ESE 5.8 mph - N/A   Clear
11:15 PM 55.4 °F 51.8 °F 88% 29.85 in 10.0 mi East 6.9 mph - N/A   Clear
11:35 PM 55.4 °F 53.6 °F 94% 29.85 in 10.0 mi ESE 6.9 mph - N/A   Clear
11:55 PM 55.4 °F 53.6 °F 94% 29.85 in 9.0 mi ESE 5.8 mph - N/A   Clear